DW8785 Weather Reports


time (UTC)temp
C
wind
direction
speed
KPH
gust
KPH
rain 1hr
cm
rain 24hr
cm
rain mn
cm
humidity
%
barometer
mb
20260508014545 11 58 0.0 0.0 0.00 0.00 0.00 86 1010.4
20260508013039 12 58 0.0 0.0 0.00 0.00 0.00 84 1010.5
20260508011548 12 59 0.0 0.0 0.00 0.00 0.00 82 1010.6
20260508010034 12 58 0.0 0.0 0.00 0.00 0.00 78 1010.5
20260508004526 12 56 0.0 0.0 0.00 0.00 0.00 78 1010.5
20260508003029 12 55 0.0 0.0 0.00 0.00 0.00 76 1010.7
20260508001519 13 89 0.0 0.0 0.00 0.00 0.00 74 1010.6
20260508000013 13 137 0.0 0.0 0.00 0.00 0.00 76 1010.8
20260507234510 13 137 0.0 0.0 0.00 0.00 0.00 72 1011.0
20260507233005 12 137 0.0 0.0 0.00 0.00 0.00 72 1011.2
20260507231501 13 137 0.0 0.0 0.00 0.00 0.00 74 1011.4
20260507230058 13 137 0.0 0.0 0.00 0.00 0.00 72 1011.4
20260507224656 13 137 0.0 0.0 0.00 0.00 0.00 68 1011.2
20260507223056 13 137 0.0 0.0 0.00 0.00 0.00 69 1011.3
20260507221554 13 137 0.0 0.0 0.00 0.00 0.00 70 1011.2
20260507220054 13 137 0.0 0.0 0.00 0.00 0.00 73 1011.3
20260507214649 12 137 0.0 0.0 0.00 0.00 0.00 78 1011.3
20260507213102 12 137 0.0 0.0 0.00 0.00 0.00 78 1011.3
20260507211543 12 137 0.0 0.0 0.00 0.00 0.00 74 1011.4
20260507210039 12 137 0.0 0.0 0.00 0.00 0.00 69 1011.3
20260507204632 12 359 0.0 0.0 0.00 0.00 0.00 67 1011.3
20260507203028 12 359 0.0 0.0 0.00 0.00 0.00 66 1011.6
20260507201524 13 350 0.0 0.0 0.00 0.00 0.00 65 1011.5
20260507200032 13 359 0.0 0.0 0.00 0.00 0.00 64 1011.6
20260507194618 13 210 0.0 0.0 0.00 0.00 0.00 63 1011.6
20260507193013 13 359 8.0 0.0 0.00 0.00 0.00 61 1011.6
20260507191509 13 241 4.8 0.0 0.00 0.00 0.00 60 1011.4
20260507190020 13 359 8.0 0.0 0.00 0.00 0.00 60 1011.2
20260507184603 13 359 6.4 0.0 0.00 0.00 0.00 60 1011.1
20260507183100 14 253 9.7 0.0 0.00 0.00 0.00 59 1011.1
20260507181555 14 313 9.7 0.0 0.00 0.00 0.00 59 1011.0
20260507180053 14 359 9.7 0.0 0.00 0.00 0.00 60 1010.8
20260507174548 15 359 8.0 0.0 0.00 0.00 0.00 59 1010.5
20260507173042 15 281 8.0 0.0 0.00 0.00 0.00 59 1010.5
20260507171538 15 284 14.5 0.0 0.00 0.00 0.00 58 1010.4
20260507170035 15 285 12.9 0.0 0.00 0.00 0.00 59 1010.6
20260507164529 15 359 12.9 0.0 0.00 0.00 0.00 58 1010.2
20260507163025 15 280 14.5 0.0 0.00 0.00 0.00 59 1010.2
20260507161520 15 189 12.9 0.0 0.00 0.00 0.00 57 1010.3
20260507160017 15 359 14.5 0.0 0.00 0.00 0.00 57 1010.3
20260507154513 15 196 14.5 0.0 0.00 0.00 0.00 59 1010.4
20260507153007 15 357 12.9 0.0 0.00 0.00 0.00 59 1010.4
20260507151502 15 168 9.7 0.0 0.00 0.00 0.00 58 1010.6
20260507150100 15 196 16.1 0.0 0.00 0.00 0.00 60 1010.6
20260507144558 15 357 19.3 0.0 0.00 0.00 0.00 60 1010.6
20260507143049 15 196 20.9 0.0 0.00 0.00 0.00 63 1010.6
20260507141552 15 357 16.1 0.0 0.00 0.00 0.00 61 1010.5
20260507134537 15 189 24.1 0.0 0.00 0.00 0.00 58 1010.4
20260507133034 16 240 20.9 0.0 0.00 0.00 0.00 60 1010.3
20260507131528 15 186 25.7 0.0 0.00 0.00 0.00 60 1010.5
20260507130024 15 186 20.9 0.0 0.00 0.00 0.00 60 1010.5
20260507124523 15 184 20.9 0.0 0.00 0.00 0.00 61 1010.6
20260507123015 15 357 20.9 0.0 0.00 0.00 0.00 61 1010.5
20260507121510 15 357 22.5 0.0 0.00 0.00 0.00 67 1010.6
20260507120006 15 174 20.9 0.0 0.00 0.00 0.00 63 1010.9
20260507114502 15 169 17.7 0.0 0.00 0.00 0.00 60 1011.0
20260507113100 15 353 16.1 0.0 0.00 0.00 0.00 62 1011.0
20260507111553 15 271 16.1 0.0 0.00 0.00 0.00 60 1011.2
20260507110049 15 289 12.9 0.0 0.00 0.00 0.00 57 1010.9
20260507104545 15 357 14.5 0.0 0.00 0.00 0.00 56 1011.3
20260507103038 14 182 11.3 0.0 0.00 0.00 0.00 55 1011.3
20260507101539 13 280 16.1 0.0 0.00 0.00 0.00 57 1011.5
20260507100033 13 281 17.7 0.0 0.00 0.00 0.00 59 1011.3
20260507094526 13 280 12.9 0.0 0.00 0.00 0.00 61 1011.6
20260507093034 13 359 17.7 0.0 0.00 0.00 0.00 61 1011.5
20260507091516 13 359 16.1 0.0 0.00 0.00 0.00 66 1011.5
20260507090014 12 359 14.5 0.0 0.00 0.00 0.00 68 1011.4
20260507084506 12 281 19.3 0.0 0.00 0.00 0.00 69 1011.5
20260507083104 12 188 24.1 0.0 0.00 0.00 0.00 69 1011.4
20260507081556 12 357 22.5 0.0 0.00 0.00 0.00 71 1011.2
20260507080116 11 277 20.9 0.0 0.00 0.00 0.00 73 1011.0
20260507074556 11 280 17.7 0.0 0.00 0.00 0.00 71 1010.9
20260507073042 11 280 20.9 0.0 0.00 0.00 0.00 70 1010.9
20260507071553 11 357 20.9 0.0 0.00 0.00 0.00 71 1010.9
20260507070035 11 359 27.4 0.0 0.00 0.00 0.00 72 1010.4
20260507064527 10 281 25.7 0.0 0.00 0.00 0.00 73 1010.6
20260507063024 10 280 24.1 0.0 0.00 0.00 0.00 69 1010.5
20260507061518 10 277 24.1 0.0 0.00 0.00 0.00 69 1010.5
20260507060018 10 281 20.9 0.0 0.00 0.00 0.00 67 1010.5
20260507054509 10 359 20.9 0.0 0.00 0.00 0.00 70 1010.4
20260507053003 10 357 25.7 0.0 0.00 0.00 0.00 72 1010.2
20260507051601 10 359 32.2 0.0 0.00 0.00 0.00 69 1010.0
20260507050055 9 357 27.4 0.0 0.00 0.00 0.00 77 1010.1
20260507044551 8 281 22.5 0.0 0.00 0.00 0.00 80 1010.2
20260507043044 9 277 25.7 0.0 0.00 0.00 0.00 76 1010.0
20260507041540 9 288 16.1 0.0 0.00 0.00 0.00 74 1009.9
20260507040040 9 261 12.9 0.0 0.00 0.00 0.00 74 1010.0
20260507034532 9 357 12.9 0.0 0.00 0.00 0.00 75 1010.0
20260507033027 9 285 14.5 0.0 0.00 0.00 0.00 74 1009.7
20260507031523 9 299 8.0 0.0 0.00 0.00 0.00 74 1009.7
20260507030019 9 299 9.7 0.0 0.00 0.00 0.00 77 1009.3
20260507024515 9 315 4.8 0.0 0.00 0.00 0.00 77 1009.2
20260507023009 10 0 3.2 0.0 0.00 0.00 0.00 76 1009.2
20260507021511 10 357 19.3 0.0 0.00 0.00 0.00 74 1009.1
20260507020002 10 281 25.7 0.0 0.00 0.00 0.00 75 1009.1